09:56
Airports
History
Links
Donate
Help keep this website running!
PayPal
Bitcoin
This page is community maintained. The information is intended for PC simulator navigation or reference.
Always use approved charts for navigation.
48M
Colonial Air Park
Colonial Air Park (48M)
Collierville, Tennessee, United States (38017)
4
Lat/Lng:34° 59' 45.33" N / 89° 43' 50.3" W
34.995926 / -89.73064
Elevation:370'ft / 113mMSL
ID / ICAO:48M
Runways:1
Longest:18-36
Grass 821m / 2,693ft
Nearby Weather09:54 GMT 2017-11-21
Nearby weather at KMEM, Memphis Intl located 14.3 nautical miles from 48M
Altimeter: 30.00
Visibility: 10.0 statute miles
Wind: 7 knots (from 160°)
Temp: 4°c / 39°f
Humidity: 69.8%

METAR: KMEM 210954Z 16007KT 10SM SCT250 04/M01 A3000 RMK AO2 SLP159 T00391006

(Powered by phpweather)
Nearby VORs <50NM
Nearby NDBs
Runway 18 / 36
Dimensions:820.8 x 30.5m 2693' x 100'ft
Surface:Grass
Runway 18 [A]Runway 36 [B]
Heading:182°TH 002°TH
Lat:
Lng:
34° 59' 58.66"N
89° 43' 49.74"W
34° 59' 32.01"N
89° 43' 50.87"W
User Notes and Comments
34° 59' 45.33" N / 89° 43' 50.3" W
Distance To
Airport ID:
Nearby Airports
(R) Burkeen Field 2.6 NM
TN70 NE 37°
(C) Olive Branch 3.4 NM
KOLV WSW 249°
4 Davis Field 4.8 NM
MS62 W 266°
4 Wolf River 9.4 NM
54M ENE 64°
(R) Vaiden Landing 13.2 NM
MS64 SW 219°
4 Bald Eagle Air Park 14.2 NM
3J4 WSW 245°
(C) Memphis Intl 14.3 NM
KMEM ( WX ) WNW 282°
VFR Chart
Flight Planning at SkyVector.com